Simultaneous Nadir Overpasses (SNOs) Predictions

Prediction of SNOs between GOES-14 and NOAA-20 Satellite Orbit:

Table of predicted SNOs for the next 14.0 days since TLE Epoch: 6/20/2020
Index Date Time (GOES-14) GOES-14 Lat,Lon NOAA-20 Lat,Lon Distance(km) Time Diff (sec)
1 06/20/2020 08:24:09 -0.10,-104.19 0.13,-105.12 106.32 80
2 06/21/2020 08:08:05 -0.08,-104.19 -0.92,-100.59 410.89 80
3 06/22/2020 20:27:21 0.12,-104.38 -0.23,-105.90 173.51 80
4 06/23/2020 20:11:16 0.10,-104.38 0.75,-101.36 343.30 80
5 06/25/2020 08:30:23 -0.13,-104.19 0.42,-106.63 278.96 80
6 06/26/2020 08:14:17 -0.12,-104.19 -0.57,-102.10 238.18 80
7 06/27/2020 20:33:35 0.15,-104.39 -0.52,-107.42 345.53 80
8 06/28/2020 20:17:29 0.13,-104.39 0.47,-102.88 171.47 80
9 06/30/2020 08:36:37 -0.17,-104.19 0.71,-108.15 451.13 80
10 07/01/2020 08:20:31 -0.16,-104.20 -0.28,-103.62 65.87 80
11 07/03/2020 20:23:43 0.18,-104.40 0.19,-104.40 1.22 80




NCC Satellite Simultaneous Nadir Overpasses (SNOs) Prediction Service
